Time,TemperatureF,DewpointF,PressureIn,WindDirection,WindDirectionDegrees,WindSpeedMPH,WindSpeedGustMPH,Humidity,HourlyPrecipIn,Conditions,Clouds,dailyrainin,SoftwareType,DateUTC
2013-02-17 00:00:00,29.0,23.0,29.71,North,3,9.0,16.0,79,-99.99,,,-99.99,,2013-02-17 05:00:00,
2013-02-17 00:22:00,29.0,23.0,29.71,North,3,9.0,16.0,79,-99.99,,,-99.99,,2013-02-17 05:22:00,
2013-02-17 00:33:00,29.0,23.0,29.71,North,3,9.0,16.0,79,-99.99,,,-99.99,,2013-02-17 05:33:00,
2013-02-17 00:42:00,29.0,23.0,29.71,North,3,9.0,16.0,79,-99.99,,,-99.99,,2013-02-17 05:42:00,
2013-02-17 00:52:00,29.0,23.0,29.71,North,3,9.0,16.0,79,-99.99,,,-99.99,,2013-02-17 05:52:00,
2013-02-17 01:00:00,30.0,17.0,29.68,North,0,8.0,16.0,59,-99.99,,,-99.99,,2013-02-17 06:00:00,
2013-02-17 01:32:00,30.0,17.0,29.68,North,0,8.0,16.0,59,-99.99,,,-99.99,,2013-02-17 06:32:00,
2013-02-17 01:42:00,30.0,17.0,29.68,North,0,8.0,16.0,59,-99.99,,,-99.99,,2013-02-17 06:42:00,
2013-02-17 01:52:00,30.0,17.0,29.68,North,0,8.0,16.0,59,-99.99,,,-99.99,,2013-02-17 06:52:00,
2013-02-17 02:00:00,30.0,16.0,29.68,North,3,5.0,15.0,57,-99.99,,,-99.99,,2013-02-17 07:00:00,
2013-02-17 02:21:00,30.0,16.0,29.68,North,3,5.0,15.0,57,-99.99,,,-99.99,,2013-02-17 07:21:00,
2013-02-17 02:32:00,30.0,16.0,29.68,North,3,5.0,15.0,57,-99.99,,,-99.99,,2013-02-17 07:32:00,
2013-02-17 02:42:00,30.0,16.0,29.68,North,3,5.0,15.0,57,-99.99,,,-99.99,,2013-02-17 07:42:00,
2013-02-17 02:52:00,30.0,16.0,29.68,North,3,5.0,15.0,57,-99.99,,,-99.99,,2013-02-17 07:52:00,
2013-02-17 04:00:00,29.0,12.0,29.68,WNW,302,1.0,17.0,49,-99.99,,,-99.99,,2013-02-17 09:00:00,
2013-02-17 04:21:00,29.0,12.0,29.68,WNW,302,1.0,17.0,49,-99.99,,,-99.99,,2013-02-17 09:21:00,
2013-02-17 04:32:00,29.0,12.0,29.68,WNW,302,1.0,17.0,49,-99.99,,,-99.99,,2013-02-17 09:32:00,
2013-02-17 04:42:00,29.0,12.0,29.68,WNW,302,1.0,17.0,49,-99.99,,,-99.99,,2013-02-17 09:42:00,
2013-02-17 04:52:00,29.0,12.0,29.68,WNW,302,1.0,17.0,49,-99.99,,,-99.99,,2013-02-17 09:52:00,
2013-02-17 05:00:00,29.0,9.0,29.68,North,4,3.0,23.0,45,-99.99,,,-99.99,,2013-02-17 10:00:00,
2013-02-17 05:22:00,29.0,9.0,29.68,North,4,3.0,23.0,45,-99.99,,,-99.99,,2013-02-17 10:22:00,
2013-02-17 05:32:00,29.0,9.0,29.68,North,4,3.0,23.0,45,-99.99,,,-99.99,,2013-02-17 10:32:00,
2013-02-17 05:42:00,29.0,9.0,29.68,North,4,3.0,23.0,45,-99.99,,,-99.99,,2013-02-17 10:42:00,
2013-02-17 05:52:00,29.0,9.0,29.68,North,4,3.0,23.0,45,-99.99,,,-99.99,,2013-02-17 10:52:00,
2013-02-17 06:00:00,28.0,6.0,29.71,WNW,295,5.0,23.0,41,-99.99,,,-99.99,,2013-02-17 11:00:00,
2013-02-17 06:22:00,28.0,6.0,29.71,WNW,295,5.0,23.0,41,-99.99,,,-99.99,,2013-02-17 11:22:00,
2013-02-17 06:32:00,28.0,6.0,29.71,WNW,295,5.0,23.0,41,-99.99,,,-99.99,,2013-02-17 11:32:00,
2013-02-17 06:42:00,28.0,6.0,29.71,WNW,295,5.0,23.0,41,-99.99,,,-99.99,,2013-02-17 11:42:00,
2013-02-17 06:53:00,28.0,6.0,29.71,WNW,295,5.0,23.0,41,-99.99,,,-99.99,,2013-02-17 11:53:00,
2013-02-17 08:00:00,29.0,9.0,29.74,North,0,4.0,13.0,43,-99.99,,,-99.99,,2013-02-17 13:00:00,
2013-02-17 08:32:00,29.0,9.0,29.74,North,0,4.0,13.0,43,-99.99,,,-99.99,,2013-02-17 13:32:00,
2013-02-17 08:42:00,29.0,9.0,29.74,North,0,4.0,13.0,43,-99.99,,,-99.99,,2013-02-17 13:42:00,
2013-02-17 08:52:00,29.0,9.0,29.74,North,0,4.0,13.0,43,-99.99,,,-99.99,,2013-02-17 13:52:00,
2013-02-17 09:00:00,30.0,9.0,29.77,West,260,9.0,23.0,43,-99.99,,,-99.99,,2013-02-17 14:00:00,
2013-02-17 09:22:00,30.0,9.0,29.77,West,260,9.0,23.0,43,-99.99,,,-99.99,,2013-02-17 14:22:00,
2013-02-17 09:32:00,30.0,9.0,29.77,West,260,9.0,23.0,43,-99.99,,,-99.99,,2013-02-17 14:32:00,
2013-02-17 09:42:00,30.0,9.0,29.77,West,260,9.0,23.0,43,-99.99,,,-99.99,,2013-02-17 14:42:00,
2013-02-17 09:53:00,30.0,9.0,29.77,West,260,9.0,23.0,43,-99.99,,,-99.99,,2013-02-17 14:53:00,
2013-02-17 10:00:00,30.0,10.0,29.77,WNW,293,5.0,25.0,42,-99.99,,,-99.99,,2013-02-17 15:00:00,
2013-02-17 10:22:00,30.0,10.0,29.77,WNW,293,5.0,25.0,42,-99.99,,,-99.99,,2013-02-17 15:22:00,
2013-02-17 10:32:00,30.0,10.0,29.77,WNW,293,5.0,25.0,42,-99.99,,,-99.99,,2013-02-17 15:32:00,
2013-02-17 10:42:00,30.0,10.0,29.77,WNW,293,5.0,25.0,42,-99.99,,,-99.99,,2013-02-17 15:42:00,
2013-02-17 10:52:00,30.0,10.0,29.77,WNW,293,5.0,25.0,42,-99.99,,,-99.99,,2013-02-17 15:52:00,
2013-02-17 11:00:00,31.0,11.0,29.80,NNE,23,6.0,26.0,43,-99.99,,,-99.99,,2013-02-17 16:00:00,
2013-02-17 11:22:00,31.0,11.0,29.80,NNE,23,6.0,26.0,43,-99.99,,,-99.99,,2013-02-17 16:22:00,
2013-02-17 11:32:00,31.0,11.0,29.80,NNE,23,6.0,26.0,43,-99.99,,,-99.99,,2013-02-17 16:32:00,
2013-02-17 11:42:00,31.0,11.0,29.80,NNE,23,6.0,26.0,43,-99.99,,,-99.99,,2013-02-17 16:42:00,
2013-02-17 11:52:00,31.0,11.0,29.80,NNE,23,6.0,26.0,43,-99.99,,,-99.99,,2013-02-17 16:52:00,
2013-02-17 12:00:00,32.0,13.0,29.80,NE,47,5.0,32.0,43,-99.99,,,-99.99,,2013-02-17 17:00:00,
2013-02-17 12:21:00,32.0,13.0,29.80,NE,47,5.0,32.0,43,-99.99,,,-99.99,,2013-02-17 17:21:00,
2013-02-17 12:32:00,32.0,13.0,29.80,NE,47,5.0,32.0,43,-99.99,,,-99.99,,2013-02-17 17:32:00,
2013-02-17 12:42:00,32.0,13.0,29.80,NE,47,5.0,32.0,43,-99.99,,,-99.99,,2013-02-17 17:42:00,
2013-02-17 12:52:00,32.0,13.0,29.80,NE,47,5.0,32.0,43,-99.99,,,-99.99,,2013-02-17 17:52:00,
2013-02-17 13:00:00,30.0,10.0,29.80,ESE,114,5.0,32.0,42,-99.99,,,-99.99,,2013-02-17 18:00:00,
2013-02-17 13:33:00,30.0,10.0,29.80,ESE,114,5.0,32.0,42,-99.99,,,-99.99,,2013-02-17 18:33:00,
2013-02-17 13:42:00,30.0,10.0,29.80,ESE,114,5.0,32.0,42,-99.99,,,-99.99,,2013-02-17 18:42:00,
2013-02-17 13:52:00,30.0,10.0,29.80,ESE,114,5.0,32.0,42,-99.99,,,-99.99,,2013-02-17 18:52:00,
2013-02-17 14:00:00,32.0,7.0,29.80,SSW,213,5.0,28.0,35,-99.99,,,-99.99,,2013-02-17 19:00:00,
2013-02-17 14:22:00,32.0,7.0,29.80,SSW,213,5.0,28.0,35,-99.99,,,-99.99,,2013-02-17 19:22:00,
2013-02-17 14:32:00,32.0,7.0,29.80,SSW,213,5.0,28.0,35,-99.99,,,-99.99,,2013-02-17 19:32:00,
2013-02-17 14:42:00,32.0,7.0,29.80,SSW,213,5.0,28.0,35,-99.99,,,-99.99,,2013-02-17 19:42:00,
2013-02-17 14:52:00,32.0,7.0,29.80,SSW,213,5.0,28.0,35,-99.99,,,-99.99,,2013-02-17 19:52:00,
2013-02-17 15:00:00,31.0,7.0,29.83,SW,235,6.0,38.0,36,-99.99,,,-99.99,,2013-02-17 20:00:00,
2013-02-17 15:22:00,31.0,7.0,29.83,SW,235,6.0,38.0,36,-99.99,,,-99.99,,2013-02-17 20:22:00,
2013-02-17 15:32:00,31.0,7.0,29.83,SW,235,6.0,38.0,36,-99.99,,,-99.99,,2013-02-17 20:32:00,
2013-02-17 15:43:00,31.0,7.0,29.83,SW,235,6.0,38.0,36,-99.99,,,-99.99,,2013-02-17 20:43:00,
2013-02-17 15:52:00,31.0,7.0,29.83,SW,235,6.0,38.0,36,-99.99,,,-99.99,,2013-02-17 20:52:00,
2013-02-17 16:00:00,31.0,5.0,29.83,SSW,210,6.0,36.0,33,-99.99,,,-99.99,,2013-02-17 21:00:00,
2013-02-17 16:21:00,31.0,5.0,29.83,SSW,210,6.0,36.0,33,-99.99,,,-99.99,,2013-02-17 21:21:00,
2013-02-17 16:32:00,31.0,5.0,29.83,SSW,210,6.0,36.0,33,-99.99,,,-99.99,,2013-02-17 21:32:00,
2013-02-17 16:42:00,31.0,5.0,29.83,SSW,210,6.0,36.0,33,-99.99,,,-99.99,,2013-02-17 21:42:00,
2013-02-17 16:53:00,31.0,5.0,29.83,SSW,210,6.0,36.0,33,-99.99,,,-99.99,,2013-02-17 21:53:00,
2013-02-17 18:00:00,28.0,10.0,29.91,SW,224,6.0,16.0,47,-99.99,,,-99.99,,2013-02-17 23:00:00,
2013-02-17 18:22:00,28.0,10.0,29.91,SW,224,6.0,16.0,47,-99.99,,,-99.99,,2013-02-17 23:22:00,
2013-02-17 18:32:00,28.0,10.0,29.91,SW,224,6.0,16.0,47,-99.99,,,-99.99,,2013-02-17 23:32:00,
2013-02-17 18:42:00,28.0,10.0,29.91,SW,224,6.0,16.0,47,-99.99,,,-99.99,,2013-02-17 23:42:00,
2013-02-17 18:52:00,28.0,10.0,29.91,SW,224,6.0,16.0,47,-99.99,,,-99.99,,2013-02-17 23:52:00,
2013-02-17 19:00:00,28.0,3.0,29.91,ESE,102,10.0,19.0,34,-99.99,,,-99.99,,2013-02-18 00:00:00,
2013-02-17 19:22:00,28.0,3.0,29.91,ESE,102,10.0,19.0,34,-99.99,,,-99.99,,2013-02-18 00:22:00,
2013-02-17 19:32:00,28.0,3.0,29.91,ESE,102,10.0,19.0,34,-99.99,,,-99.99,,2013-02-18 00:32:00,
2013-02-17 19:42:00,28.0,3.0,29.91,ESE,102,10.0,19.0,34,-99.99,,,-99.99,,2013-02-18 00:42:00,
2013-02-17 19:52:00,28.0,3.0,29.91,ESE,102,10.0,19.0,34,-99.99,,,-99.99,,2013-02-18 00:52:00,
2013-02-17 20:00:00,28.0,5.0,29.94,West,267,7.0,15.0,39,-99.99,,,-99.99,,2013-02-18 01:00:00,
2013-02-17 20:21:00,28.0,5.0,29.94,West,267,7.0,15.0,39,-99.99,,,-99.99,,2013-02-18 01:21:00,
2013-02-17 20:32:00,28.0,5.0,29.94,West,267,7.0,15.0,39,-99.99,,,-99.99,,2013-02-18 01:32:00,
2013-02-17 20:42:00,28.0,5.0,29.94,West,267,7.0,15.0,39,-99.99,,,-99.99,,2013-02-18 01:42:00,
2013-02-17 20:52:00,28.0,5.0,29.94,West,267,7.0,15.0,39,-99.99,,,-99.99,,2013-02-18 01:52:00,
2013-02-17 21:00:00,27.0,4.0,30.00,WSW,240,9.0,29.0,38,-99.99,,,-99.99,,2013-02-18 02:00:00,
2013-02-17 21:22:00,27.0,4.0,30.00,WSW,240,9.0,29.0,38,-99.99,,,-99.99,,2013-02-18 02:22:00,
2013-02-17 21:32:00,27.0,4.0,30.00,WSW,240,9.0,29.0,38,-99.99,,,-99.99,,2013-02-18 02:32:00,
2013-02-17 21:42:00,27.0,4.0,30.00,WSW,240,9.0,29.0,38,-99.99,,,-99.99,,2013-02-18 02:42:00,
2013-02-17 21:52:00,27.0,4.0,30.00,WSW,240,9.0,29.0,38,-99.99,,,-99.99,,2013-02-18 02:52:00,
2013-02-17 22:00:00,26.0,1.0,30.00,WSW,253,5.0,30.0,33,-99.99,,,-99.99,,2013-02-18 03:00:00,
2013-02-17 22:22:00,26.0,1.0,30.00,WSW,253,5.0,30.0,33,-99.99,,,-99.99,,2013-02-18 03:22:00,
2013-02-17 22:32:00,26.0,1.0,30.00,WSW,253,5.0,30.0,33,-99.99,,,-99.99,,2013-02-18 03:32:00,
2013-02-17 22:42:00,26.0,1.0,30.00,WSW,253,5.0,30.0,33,-99.99,,,-99.99,,2013-02-18 03:42:00,
2013-02-17 22:52:00,26.0,1.0,30.00,WSW,253,5.0,30.0,33,-99.99,,,-99.99,,2013-02-18 03:52:00,
2013-02-17 23:00:00,25.0,0.0,30.03,SSW,198,12.0,28.0,34,-99.99,,,-99.99,,2013-02-18 04:00:00,
2013-02-17 23:22:00,25.0,0.0,30.03,SSW,198,12.0,28.0,34,-99.99,,,-99.99,,2013-02-18 04:22:00,
2013-02-17 23:32:00,25.0,0.0,30.03,SSW,198,12.0,28.0,34,-99.99,,,-99.99,,2013-02-18 04:32:00,
2013-02-17 23:42:00,25.0,0.0,30.03,SSW,198,12.0,28.0,34,-99.99,,,-99.99,,2013-02-18 04:42:00,
2013-02-17 23:52:00,25.0,0.0,30.03,SSW,198,12.0,28.0,34,-99.99,,,-99.99,,2013-02-18 04:52:00,